www.pogodaiklimat.ru

Архив погоды в Кяхте (Бурятия, Россия)

Время
(UTC), дата
06 21.06
09 21.06
12 21.06
15 21.06
18 21.06
21 21.06
00 22.06
03 22.06
06 22.06
09 22.06
12 22.06
15 22.06
18 22.06
21 22.06
00 23.06
03 23.06
06 23.06
09 23.06
12 23.06
15 23.06
18 23.06
21 23.06
00 24.06
03 24.06
06 24.06
09 24.06
12 24.06
15 24.06
18 24.06
21 24.06
00 25.06
03 25.06
06 25.06
09 25.06
12 25.06
15 25.06
18 25.06
21 25.06
00 26.06
03 26.06
06 26.06
09 26.06
12 26.06
15 26.06
18 26.06
21 26.06
00 27.06
03 27.06
06 27.06
09 27.06
12 27.06
15 27.06
18 27.06
21 27.06
00 28.06
03 28.06
Ветер
(напр.,м/с)
Видим. Явления Облачность Т
(С)
Тd
(С)
f
(%)
Тe
(С)
Тes
(С)
Комфортность P
(гПа)
Po
(гПа)
Тmin
(С)
Tmax
(С)
R
(мм)
R24
(мм)
S
(см)
Ю 3 50 км 10/6 600 м
[Cb cap Ac lent Ci fib]
+22.8 +10.6 46 +25 +28 комфорт 999.8 913.3
С 4 50 км 9/6 600 м
[Cb cap Ci fib]
+21.5 +10.2 49 +23 +25 комфорт 1000.0 913.1
СЗ 1 50 км 10/8 600 м
[Cb cap Ac trans Ci fib]
+20.0 +11.0 56 +23 +23 комфорт 1000.5 913.2 +24.2
С 1 н/о 10/3 600 м
[Cb cap Ac trans Ci fib]
+15.0 +11.3 79 +16 +16 1002.5 913.6
С 1 н/о 8/0
[Ac trans Ci fib]
+14.6 +11.0 79 +15 +15 1003.2 914.0
штиль 0 50 км 10/6 600 м
[Cb cap Ac trans Ci fib]
+12.8 +10.8 88 +12 +12 1004.2 914.4
СВ 3 50 км 8/3 600 м
[Cb cap Ac trans Ci fib]
+18.2 +11.4 64 +19 +20 1002.7 914.7 +12.7
В 2 50 км 8/6 600 м
[Cb cap Ac trans Ci fib]
+20.4 +11.4 56 +23 +27 комфорт 1002.0 914.6
С 2
{10}
50 км в посл. час гроза {ливн. дождь} [макс. диам. градин 11 мм] 9/8 600 м
[Cb cap Ac cuf Ci fib]
+17.7 +11.9 69 +18 +21 1003.5 915.3
С 3 50 км 9/6 600 м
[Cb cap Ci fib]
+19.4 +11.6 61 +21 +23 комфорт 1003.6 915.8
С 1 50 км 4/3 600 м
[Cb cap Ac trans]
+18.0 +10.4 61 +19 +19 1005.4 917.0 +20.5 6
С 1 н/о 1/0
[Ac trans]
+12.2 +10.4 89 +12 +12 1008.3 917.9
СЗ 1 н/о ясно +11.1 +9.2 88 +11 +11 1009.2 918.4
штиль 0 50 км 1/0
[Ac lent]
+9.3 +8.4 94 +8 +8 1010.2 918.7
Ю 2 50 км 4/0 2000 м
[Ac trans Ci fib]
+15.1 +11.9 81 +15 +19 1008.6 919.1 +9.0
Ю 4 50 км 3/3 1000 м
[Cu med, cong]
+20.7 +11.2 54 +23 +30 комфорт 1006.0 918.4
Ю 4 50 км 6/6 1000 м
[Cu med, cong]
+24.1 +11.1 44 +25 +30 комфорт 1003.3 916.9
З 4 20 км гроза без осадков {ливн. дождь} 9/8 600 м
[Cb cap Ac cuf]
+18.7 +14.0 74 +19 +20 1004.8 916.5
З 1 50 км {гроза, ливн. дождь} 9/6 1000 м
[Cu med, cong Ac cuf Ci sp]
+20.0 +15.3 74 +23 +24 комфорт 1003.1 915.6 +25.4 12
С 1 н/о зарница {ливн. дождь} 9/4 600 м
[Cb cap Ac cuf Ci ing]
+15.2 +13.8 91 +16 +16 1004.1 915.2
штиль 0 н/о {ливн. дождь} 10/3 600 м
[Cb cap Ac cuf Ci ing]
+15.0 +13.9 93 +15 +15 1003.0 914.1
С 2 50 км 10/4 600 м
[Cb cap Ac cuf Ci ing]
+12.9 +11.5 91 +12 +12 1003.0 913.4
штиль 0 50 км 8/3 1000 м
[Cu med, cong Ac cuf Ci ing]
+19.4 +13.8 70 +21 +24 комфорт 999.3 912.0 +12.1 0.0
С 2 50 км 8/4 1000 м
[Cu hum Ac trans Cs]
+23.2 +13.6 55 +27 +33 душно 998.7 912.4
С 3 50 км 8/4 600 м
[Cb cap Ac As Cs]
+25.9 +13.4 46 +28 +34 жарко 996.6 911.2
С 3 50 км 3/1 1000 м
[Cu hum Ci fib]
+25.9 +11.0 39 +27 +32 жарко 995.6 910.3
В 2 50 км 8/0 2000 м
[Ac As Ci fib]
+22.8 +9.4 42 +24 +25 комфорт 997.0 910.7 +26.4
СВ 1 н/о 10/1 1000 м
[Sc Ac As]
+19.2 +9.7 54 +21 +21 комфорт 999.7 912.2
С 2 н/о 6/3 600 м
[Cb cap Ac As]
+16.5 +8.6 60 +17 +17 1001.8 913.3
СЗ 1 50 км 4/0 2000 м
[Ac trans Cs]
+14.6 +7.3 62 +15 +15 1003.5 914.2
СВ 2 50 км 3/0
[Ci fib]
+19.3 +8.0 48 +21 +25 комфорт 1003.1 915.3 +14.1
Ю 2 50 км 8/0
[Ci fib]
+22.3 +11.2 49 +24 +37 комфорт 1002.1 915.3
ЮВ 1 50 км 10/3 1000 м
[Cu hum Ac lent Ci fib]
+24.9 +10.0 39 +26 +33 жарко 1000.5 914.5
З 2 50 км 10/6 600 м
[Cb cap Ac lent Ci fib]
+24.9 +10.9 41 +26 +28 жарко 1000.6 914.6
С 2 50 км 10/4 600 м
[Cb cap Ac trans Ci fib]
+22.5 +11.5 50 +25 +25 комфорт 1002.5 915.7 +25.6
штиль 0 н/о 10/4 600 м
[Cb cap Ac trans Ci fib]
+17.9 +12.4 70 +18 +18 1005.2 916.9
С 3 н/о 10/3 600 м
[Cb cap Ac trans Ci fib]
+18.9 +9.6 55 +20 +20 1005.8 917.6
С 3 50 км 10/3 1000 м
[Sc diur, vesp Ac lent Ci fib]
+16.6 +8.6 59 +16 +16 1007.5 918.5
С 3 50 км 10/0 2000 м
[Ac lent Ci fib]
+19.8 +11.1 57 +21 +24 комфорт 1007.8 919.8 +15.7
С 2 50 км 8/3 1000 м
[Cu hum Ci fib]
+22.3 +11.2 49 +24 +33 комфорт 1007.0 919.7
СВ 2 50 км 6/6 1000 м
[Cu hum]
+25.3 +9.4 37 +26 +33 жарко 1005.0 918.7
В 2 50 км 4/3 1000 м
[Cu hum Ci fib]
+26.0 +8.0 32 +26 +31 жарко 1003.7 917.7
ЮВ 1 50 км 3/0 2000 м
[Ac trans Ci fib]
+23.9 +9.6 40 +25 +25 комфорт 1004.6 917.9 +26.8
С 1 н/о 1/0
[Ci fib]
+16.5 +10.2 66 +17 +17 1007.5 918.5
С 2 н/о ясно +16.0 +10.1 68 +16 +16 1007.7 918.6
штиль 0 50 км 1/0
[Ci fib]
+13.2 +9.6 79 +13 +13 1008.3 918.3
Ю 2 50 км 1/0
[Ci fib]
+19.2 +12.4 65 +21 +26 комфорт 1006.7 918.6 +13.1
Ю 3 50 км ясно +24.9 +12.9 47 +27 +39 жарко 1004.2 918.0
Ю 3 50 км 3/3 1000 м
[Cu med, cong]
+29.1 +12.0 35 +30 +40 жарко 1001.3 916.4
ЮВ 3 50 км 3/3 1000 м
[Cu hum Ci fib]
+30.2 +11.5 32 +31 +35 жарко 999.5 915.0
Ю 2 50 км 4/0
[Ci]
+28.4 +12.7 38 +30 +30 жарко 999.9 914.9 +30.7
штиль 0 н/о 3/0
[Ci fib]
+20.7 +13.6 64 +23 +23 комфорт 1002.8 915.5
С 1 н/о ясно +17.6 +12.2 71 +19 +19 1003.9 915.6
штиль 0 50 км ясно +18.0 +11.8 67 +18 +18 1003.3 915.2
Ю 1 50 км ясно +23.0 +13.6 55 +26 +32 жарко 1002.0 915.4 +15.9
Ю 2 50 км 1/0
[Ci fib]
+28.0 +14.0 42 +30 +45 жарко 999.9 914.9
Местоположение метеостанции Кяхта (Бурятия, Россия): широта 50.37 долгота 106.40 высота над уровнем моря 797 м.
В архиве по умолчанию представлена погода в Кяхте за последнюю неделю. Архивные данные за месяц целиком и за предыдущие месяцы, начиная с января 2011 года, Вы можете получить, выбрав интересующий диапазон дат из раскрывающегося списка и нажав кнопку "Найти!".
*Определитесь, кто Вы:
Внимание! Время в таблицах - всемирное. Для получения местного времени необходимо прибавить поправку, которая равна 8 ч.
Смотрите также архив погоды в соседних городах и на ближайших метеорологических станциях:
Партнеры нашего сайта:      
Пояснения к столбцам:
  • Ветер - указаны скорость ветра в м/с - средняя за 10 мин, порывы в срок и между сроками (в фигурных скобках) и направление, откуда дует ветер: С - северный,
  • СВ - северо-восточный, В - восточный, ЮВ - юго-восточный, Ю - южный, ЮЗ - юго-западный, З - западный, СЗ - северо-западный.
  • Видимость - горизонтальная дальность видимости в метрах или километрах. При видимости от 1 до 10 км при отсутствии осадков обычно наблюдается дымка, при ухудшении видимости до 1 км и менее - туман. В сухую погоду видимость может ухудшаться дымом, пылью или мглою.
  • Явления - указаны атмосферные явления, наблюдавшиеся в срок или в последний час перед сроком; фигурными скобками обозначены явления, наблюдавшиеся между сроками (за 1-3 часа до срока); квадратными скобками обозначены град или гололедные отложения с указанием их диаметра в мм.
  • Облачность - указаны через наклонную черту общая и нижняя облачность в баллах и высота нижней границы облаков в метрах; квадратными скобками обозначены формы облаков: Ci - перистые, Cs - перисто-слоистые, Cc - перисто-кучевые, Ac - высококучевые, As - высокослоистые, Sc - слоисто-кучевые, Ns - слоисто-дождевые, Cu - кучевые, Cb - кучево-дождевые. Подробнее классификацию облаков см. в Атласе облаков (PDF).
  • T - Температура воздуха - температура, измеренная на высоте 2 м над землей.
  • Td - Температура точки росы - температура, при понижении до которой содержащийся в воздухе водяной пар достигнет насыщения.
  • f - Относительная влажность воздуха - влажноcть воздуха, измеренная на высоте 2 м над землей.
  • Te - Эффективная температура - температура, которую ощущает одетый по сезону человек в тени. Характеристика душности погоды. При расчете учитывается влияние влажности воздуха и скорости ветра на теплоощущения человека.
  • Tes - Эффективная температура на солнце - температура, которую ощущает человек, с поправкой на солнечный нагрев. Характеристика знойности погоды. Зависит от высоты солнца над горизонтом, облачности и скорости ветра. Ночью, в пасмурную погоду, а также при ветре 12 м/с и более поправка равна нулю.
  • P - Атмосферное давление - приведенное к уровню моря атмосферное давление.
  • Po - Атмосферное давление - измеренное на уровне метеостанции атмосферное давление.
  • Tmin - Минимальная температура - минимум температуры воздуха на высоте 2 м над землей.
  • Tmax - Максимальная температура - максимум температуры воздуха на высоте 2 м над землей.
  • R - Количество осадков - Количество выпавших осадков за период времени, мм. При наведении курсора мыши на число - период времени, за который выпало указанное количество осадков.
  • R24 - Количество осадков - Количество выпавших осадков за 24 часа, мм.
  • S - Снежный покров - Высота снежного покрова, см. При наведении курсора мыши на число - состояние снежного покрова и степень покрытия местности в баллах.